Location: *
(52.1356°N, 21.2369°E)
Time: 20:18:32
(UTC+00:00)

Daily predictions for brighter satellites

Satellite Brightness Start Highest point End
(mag) Time Altitude Azimuth Time Altitude Azimuth Time Altitude Azimuth
STARLINK-1225 3.7 17:49:53 10° W 17:54:03 78° N 17:58:12 10° E
ATLAS 2AS CENTAUR R/B 3.0 17:47:45 10° NW 17:55:32 90° S 18:02:40 10° SE
Cosmos 2251 Rocket 3.6 17:51:10 10° SSW 17:56:33 86° ESE 18:01:59 10° NNE
Cosmos 1437 2.7 17:55:03 10° NNW 17:58:06 78° WSW 18:01:06 10° S
STARLINK-1230 3.7 17:54:52 10° W 17:59:02 79° N 18:03:11 10° E
SL-08 RB Rocket 3.8 17:55:59 10° SSE 18:00:29 60° ENE 18:05:03 10° N
CZ-4C R/B 3.9 17:57:11 10° NW 18:02:47 32° N 18:09:19 10° ENE
Cosmos 1908 3.8 17:59:21 10° SSE 18:02:55 36° E 18:06:31 10° NNE
CZ-4 R/B 4.3 18:00:34 10° SW 18:03:14 18° W 18:05:55 10° NW
STARLINK-1243 3.7 17:59:50 10° W 18:04:00 80° N 18:08:10 10° E
SeaSat 1 2.6 17:59:07 10° NNE 18:04:06 85° WNW 18:09:02 10° SW
Resurs 1-3 4.1 18:01:09 10° SE 18:05:17 42° ENE 18:09:27 10° N
Cosmos 1943 3.2 18:00:04 10° SSW 18:05:41 69° ESE 18:11:22 10° NE
Ariane Rocket 3.4 18:03:35 10° S 18:08:37 67° WSW 18:13:41 10° NNW
STARLINK-1236 3.7 18:04:49 10° W 18:08:59 81° N 18:13:08 10° E
MONITOR-E 4.0 18:07:19 10° S 18:09:56 73° WSW 18:12:35 10° NNW
IRIDIUM 104 4.5 18:05:44 10° N 18:10:59 81° W 18:16:13 10° S
Cosmos 1656 Rocket 4.0 18:05:49 10° NW 18:11:28 69° WSW 18:17:01 10° SSE
Cosmos 1140 Rocket 4.3 18:08:10 10° SSE 18:12:37 30° ESE 18:17:03 10° NE
STARLINK-1228 2.9 18:10:10 10° WNW 18:13:04 62° SSW 18:15:31 13° ESE
Cosmos 2184 Rocket 4.1 18:07:21 10° NNW 18:13:41 85° W 18:19:55 10° S
Cosmos 1953 2.7 18:09:51 10° SSW 18:13:49 68° WNW 18:17:49 10° N
Meteor 1-11 4.3 18:09:04 10° N 18:14:51 69° ENE 18:20:31 10° SSE
COSMOS 2455 3.0 18:10:14 10° NW 18:16:17 67° NE 18:22:02 11° SE
Cosmos 1697 Rocket 4.4 18:13:15 10° NNW 18:17:28 21° NNE 18:21:39 10° E
Cosmos 1726 2.3 18:14:50 10° SSW 18:18:34 80° WNW 18:22:19 10° N
CZ-2C R/B 3.2 18:14:10 10° NNE 18:18:49 32° E 18:23:28 10° SSE
STARLINK-1269 3.7 18:14:46 10° W 18:18:56 83° N 18:22:41 13° E
Meteor 2-10 4.3 18:15:17 10° SSW 18:20:48 88° WNW 18:26:32 10° NNE
MetOp-A 4.2 18:16:06 10° SSE 18:21:25 71° ENE 18:26:47 10° NNW
Cosmos 2058 Rocket 3.5 18:18:27 10° SSE 18:22:42 42° E 18:26:57 10° NNE
STARLINK-1200 3.6 18:19:45 10° W 18:23:55 85° N 18:27:28 14° E
Cosmos 614 Rocket 4.1 18:19:53 10° S 18:24:58 56° ESE 18:30:05 10° NNE
ARGOS 3.6 18:22:21 10° S 18:27:43 65° WSW 18:33:05 10° NNW
STARLINK-1192 3.6 18:24:45 10° W 18:28:55 86° N 18:32:16 15° E
Cosmos 1726 Rocket 3.5 18:26:21 10° S 18:30:44 73° E 18:35:12 10° NNE
FREGAT/IRIS 4.3 18:28:38 10° SSW 18:31:07 31° W 18:33:36 10° NNW
SL-16 R/B 4.3 18:26:24 10° WSW 18:31:22 30° NW 18:36:20 10° NNE
SL-24 R/B 3.9 18:27:33 10° NNE 18:31:42 56° E 18:35:25 10° S
Meteor 2-17 Rocket 4.5 18:26:38 10° N 18:32:50 89° E 18:39:00 10° S
STARLINK-1244 3.6 18:29:43 10° WNW 18:33:53 88° N 18:37:02 17° ESE
Resurs 01 Rocket 1.7 18:30:56 11° SSE 18:35:02 58° ENE 18:39:24 10° N
Cosmos 2154 Rocket 4.1 18:29:55 10° N 18:36:19 87° WSW 18:42:39 10° S
ERBS 2.7 18:33:50 10° WNW 18:37:11 56° NNE 18:39:24 19° E
Nadezhda 1 Rocket 4.0 18:31:05 10° S 18:37:27 78° E 18:43:49 10° NNE
ATLAS CENTAUR R/B 3.3 18:34:30 10° NNW 18:37:29 19° NNE 18:40:19 10° ENE
STARLINK-1138 3.6 18:34:42 10° WNW 18:38:52 90° WSW 18:41:49 19° ESE
SL-8 Rocket 4.3 18:33:13 10° N 18:39:21 48° ENE 18:44:32 14° SE
USA 186 3.7 18:36:36 10° SSW 18:39:34 30° W 18:42:25 10° NNW
Cosmos 921 Rocket 2.9 18:37:09 10° NNW 18:41:22 84° ENE 18:44:56 14° SSE
STARLINK-1143 3.6 18:39:40 10° WNW 18:43:50 87° SSW 18:46:36 21° ESE
SL-24 R/B - RUBIN 2 4.4 18:40:34 10° SSW 18:46:06 56° ESE 18:52:21 10° NE
STARLINK-1234 3.5 18:43:18 10° W 18:46:15 43° SSW 18:47:39 24° SSE
Cosmos 407 Rocket 3.4 18:41:10 10° SSW 18:46:16 69° ESE 18:51:23 10° NNE
STARLINK-1233 3.2 18:43:12 10° W 18:46:17 53° SSW 18:47:47 26° SE
Cosmos 1980 Rocket 4.0 18:42:33 10° NNW 18:46:36 20° NNE 18:50:39 10° ENE
STARLINK-1212 3.2 18:43:40 10° W 18:46:45 53° SSW 18:48:13 26° SE
STARLINK-1105 3.3 18:44:07 10° W 18:47:12 52° SSW 18:48:40 26° SE
STARLINK-1209 3.6 18:44:30 10° W 18:47:23 40° SSW 18:48:45 24° SSE
Cosmos 676 Rocket 4.4 18:42:32 10° S 18:47:25 40° ESE 18:52:18 10° NE
STARLINK-1206 3.2 18:44:36 10° W 18:47:39 52° SSW 18:49:04 27° SE
STARLINK-1247 3.3 18:45:03 10° W 18:48:06 52° SSW 18:49:30 27° SE
STARLINK-1227 3.3 18:45:28 10° W 18:48:32 52° SSW 18:49:57 27° SE
STARLINK-1241 3.6 18:44:41 10° WNW 18:48:51 85° SSW 18:51:25 23° ESE
STARLINK-1218 3.3 18:45:57 10° W 18:49:01 51° SSW 18:50:22 27° SE
STARLINK-1226 3.3 18:46:24 10° W 18:49:27 51° SSW 18:50:49 27° SE
Cosmos 2228 3.5 18:45:16 10° SSW 18:49:32 65° WNW 18:53:54 10° N
STARLINK-1254 3.3 18:46:49 10° W 18:49:54 51° SSW 18:51:15 28° SE
ERS-1 Rocket 4.1 18:47:20 18° ESE 18:49:58 28° ENE 18:54:12 10° N
STARLINK-1215 3.3 18:47:19 10° W 18:50:22 50° SSW 18:51:40 28° SE
SPOT 3 Rocket 3.9 18:45:32 10° S 18:50:43 67° WSW 18:55:56 10° NNW
STARLINK-1231 3.3 18:47:46 10° W 18:50:48 50° SSW 18:52:06 28° SE
STARLINK-1232 3.3 18:48:40 10° W 18:51:43 49° SSW 18:52:59 29° SE
Cosmos 1461 3.7 18:47:32 10° NW 18:51:56 51° SW 18:55:35 15° SSE
STARLINK-1217 3.3 18:49:07 10° W 18:52:09 49° SSW 18:53:24 29° SE
Cosmos 2366 rocket 4.3 18:46:15 10° N 18:52:11 47° ENE 18:56:23 19° SE
STARLINK-1208 3.3 18:49:32 10° W 18:52:35 49° SSW 18:53:51 29° SE
STARLINK-1229 3.3 18:50:01 10° W 18:53:03 48° SSW 18:54:16 29° SSE
STARLINK-1271 3.4 18:50:28 10° W 18:53:30 48° SSW 18:54:43 29° SSE
STARLINK-1239 3.6 18:49:37 10° WNW 18:53:47 83° SSW 18:56:09 25° ESE
STARLINK-1270 3.4 18:50:55 10° W 18:53:57 48° SSW 18:55:09 30° SSE
STARLINK-1154 3.4 18:51:22 10° W 18:54:24 47° SSW 18:55:34 30° SSE
Cosmos 1455 4.4 18:55:18 11° ENE 18:55:18 11° ENE 18:55:54 10° ENE
Aureole 1 Rocket 4.0 18:47:36 10° SSW 18:54:56 83° ESE 19:00:36 10° NNE
STARLINK-1197 3.4 18:52:17 10° W 18:55:18 47° SSW 18:56:27 30° SSE
STARLINK-1189 3.4 18:52:44 10° W 18:55:45 47° SSW 18:56:52 30° SSE
Cosmos 1892 3.8 18:52:21 10° N 18:55:49 29° ENE 18:57:00 25° ESE
STARLINK-1198 3.4 18:53:10 10° W 18:56:12 46° SSW 18:57:18 30° SSE
SPOT 5 4.1 18:55:01 18° E 18:56:36 22° ENE 18:59:58 10° N
STARLINK-1188 3.4 18:53:38 10° W 18:56:39 46° SSW 18:57:44 31° SSE
STARLINK-1235 3.7 18:54:18 10° W 18:57:16 39° SSW 18:58:23 28° SSE
STARLINK-1187 3.6 18:54:43 10° W 18:57:44 42° SSW 18:58:50 29° SSE
STARLINK-1199 3.5 18:55:34 10° W 18:58:35 45° SSW 18:59:39 31° SSE
STARLINK-1240 3.6 18:54:37 10° WNW 18:58:47 80° SSW 19:00:57 27° ESE
STARLINK-1191 3.5 18:56:02 10° W 18:59:04 45° SSW 19:00:06 31° SSE
Cosmos 220 Rocket 4.2 18:55:02 10° NNW 18:59:18 57° ENE 19:01:33 26° SE
STARLINK-29 4.2 18:56:43 10° SSW 18:58:47 24° SSE 18:58:47 24° SSE
STARLINK-1210 3.5 18:56:28 10° W 18:59:30 45° SSW 19:00:31 31° SSE
STARLINK-1221 3.5 18:56:56 10° W 18:59:58 44° SSW 19:00:58 32° SSE
STARLINK-1219 3.5 18:57:22 10° W 19:00:24 44° SSW 19:01:23 32° SSE
STARLINK-1222 3.5 18:57:50 10° W 19:00:51 44° SSW 19:01:49 32° SSE
STARLINK-1211 3.5 18:58:17 10° W 19:01:18 44° SSW 19:02:15 32° SSE
STARLINK-60 3.3 18:58:10 10° SW 19:01:20 46° SSE 19:02:13 35° ESE
ATLAS 5 CENTAUR R/B 1.6 18:57:22 10° SSW 19:01:29 55° SE 19:06:10 10° NE
STARLINK-1214 3.5 18:58:44 10° W 19:01:45 43° SSW 19:02:41 32° SSE
STARLINK-1245 3.5 18:59:14 10° W 19:02:13 43° SSW 19:03:07 33° SSE
STARLINK-1238 3.5 18:59:38 10° W 19:02:39 43° SSW 19:03:34 32° SSE
STARLINK-1205 3.6 19:00:35 10° W 19:03:34 42° SSW 19:04:25 33° SSE
STARLINK-1216 3.6 18:59:37 10° WNW 19:03:46 77° SSW 19:05:45 30° ESE
STARLINK-1204 3.6 19:01:02 10° W 19:04:00 42° SSW 19:04:50 33° SSE
Terra 3.3 19:03:34 19° E 19:05:19 23° ENE 19:09:02 10° N
Cosmos 1825 3.9 19:03:16 10° NNE 19:05:54 17° ENE 19:06:15 17° ENE
Cosmos 1818 4.0 19:01:21 10° SW 19:06:46 66° NW 19:12:14 10° NE
STARLINK-1237 3.6 19:04:35 10° WNW 19:08:44 75° SSW 19:10:31 33° ESE
Cosmos 1954 Rocket 4.0 19:05:20 10° S 19:10:27 57° ESE 19:15:34 10° NNE
Cosmos 192 4.4 19:05:39 10° NNW 19:10:37 67° ENE 19:13:09 28° SE
Abrixas rocket 3.3 19:08:51 10° WSW 19:11:24 26° SSW 19:11:30 25° SSW
Cosmos 1023 Rocket 4.4 19:06:36 10° SSW 19:11:47 84° ESE 19:16:57 10° NNE
Cosmos 2151 4.1 19:08:54 10° N 19:12:29 26° ENE 19:13:16 25° E
Cosmos 2058 3.0 19:09:01 10° N 19:13:04 54° ENE 19:14:34 34° SE
STARLINK-1202 3.6 19:09:34 10° WNW 19:13:43 72° SSW 19:15:19 36° SE
SPOT 1/Viking Rocket 3.8 19:12:00 27° SE 19:14:36 52° ENE 19:19:41 10° N
RESURS DK-1 3.3 19:12:10 10° NNW 19:16:01 35° NE 19:17:24 27° E
In-Cosmos 22 Rocket 4.3 19:11:03 10° N 19:16:56 74° ENE 19:20:35 24° SSE
Cosmos 1300 2.6 19:17:23 17° S 19:20:13 87° ESE 19:24:05 10° NNE
Cosmos 1076 Rocket 3.5 19:16:18 10° N 19:20:34 67° ENE 19:22:14 35° SSE
MOS 1 Rocket 3.8 19:15:41 10° NNE 19:21:03 79° WNW 19:26:30 10° SSW
FALCON 9 DEB 4.3 19:18:08 10° SW 19:20:16 28° S 19:20:16 28° S
SL-4 R/B 1.4 19:18:39 10° WSW 19:22:02 67° SSE 19:22:39 53° ESE
STARLINK-1246 3.7 19:19:33 10° WNW 19:23:40 66° SSW 19:24:53 42° SE
STARLINK-1203 3.7 19:20:11 10° WNW 19:24:21 62° SSW 19:25:34 41° SE
Cosmos 1340 Rocket 3.7 19:21:05 10° SSW 19:25:01 50° WNW 19:28:58 10° N
STARLINK-1201 3.9 19:22:11 10° W 19:25:12 34° SSW 19:25:27 33° SSW
Cosmos 1763 Rocket 3.5 19:23:11 10° NNW 19:28:24 66° ENE 19:30:28 36° SE
STARLINK-1224 3.7 19:24:32 10° WNW 19:28:37 63° SSW 19:29:39 45° SE
Cosmos 1833 Rocket 4.4 19:32:06 16° ENE 19:32:06 16° ENE 19:34:09 10° ENE
STARLINK-1225 3.7 19:29:32 10° WNW 19:33:36 60° SSW 19:34:27 48° SSE
SAR-Lupe-2 3.4 19:31:54 10° NNE 19:35:31 90° NNE 19:36:46 39° SSW
MetOp-B 4.3 19:33:00 22° S 19:36:29 70° WSW 19:41:52 10° NNW
SL-08 R/B 4.5 19:31:12 10° N 19:37:21 67° ENE 19:40:12 33° SSE
Cosmos 540 Rocket 4.0 19:32:58 10° NNW 19:37:57 44° ENE 19:39:30 34° E
STARLINK-1230 3.8 19:34:31 10° WNW 19:38:35 57° SSW 19:39:14 50° SSE
Cosmos 1174 4.1 19:34:42 10° NW 19:38:42 75° SW 19:40:09 43° SSE
COSMOS 2406 3.8 19:39:02 33° ESE 19:39:04 33° ESE 19:44:07 10° NE
USA 234 3.4 19:33:17 10° ENE 19:39:32 46° SE 19:45:46 10° SSW
Meteor 2-10 Rocket 4.1 19:42:14 37° ESE 19:42:49 38° E 19:47:49 10° NNE
STARLINK-1243 3.8 19:39:29 10° WNW 19:43:32 54° SSW 19:44:01 50° S
Iridium 4 Rocket 2.8 19:39:31 10° N 19:43:46 90° E 19:44:57 47° S
Cosmos-2242 3.8 19:44:32 35° ENE 19:44:32 35° ENE 19:48:09 10° NNE
ATLAS 2AS CENTAUR R/B 4.4 19:39:34 10° WNW 19:45:38 27° WSW 19:51:19 10° SSW
STARLINK-1236 3.9 19:44:28 10° WNW 19:48:30 51° SSW 19:48:47 50° S
USA 32 4.0 19:44:03 10° N 19:49:17 64° E 19:50:42 45° SE
STPSAT 2 (USA 217) 4.4 19:48:49 32° SSW 19:50:52 76° ESE 19:55:22 10° NNE
CZ-4C R/B 3.2 19:46:03 10° NW 19:52:40 57° NE 19:56:49 28° E
Cosmos 1140 Rocket 4.3 19:49:09 10° SW 19:54:12 50° WNW 19:59:15 10° NNE
Cosmos 2369 3.9 19:50:53 10° NNW 19:56:31 61° NE 19:58:09 43° ESE
STARLINK-1269 4.1 19:54:26 10° WNW 19:58:20 46° SSW 19:58:20 46° SSW
CZ-2C R/B 3.6 19:54:22 10° N 19:59:17 44° WNW 20:04:11 10° SW
Spot 2 Rocket 4.1 19:56:54 26° SSW 19:59:33 51° W 20:04:33 10° NNW
Meteor 2-1 Rocket 4.2 19:56:24 28° S 19:59:44 83° E 20:05:43 10° NNE
Cosmos 1850 Rocket 3.9 19:59:22 49° SSE 20:00:29 62° ESE 20:05:37 10° NNE
Landsat 7 4.1 19:58:57 37° SSW 20:00:40 63° WSW 20:05:26 10° NNW
COSMOS 2455 4.2 19:56:39 10° NW 20:01:50 31° WSW 20:05:12 18° SSW
Cosmos 1697 Rocket 2.8 19:56:51 10° NNW 20:02:32 67° NE 20:04:03 48° ESE
Cosmos 1408 2.6 19:58:53 10° N 20:02:18 75° N 20:02:18 75° N
STARLINK-1200 4.2 19:59:25 10° WNW 20:03:07 43° SW 20:03:07 43° SW
ASTEX 1 4.1 20:05:06 38° E 20:05:21 38° ENE 20:09:56 10° N
Cosmos 841 Rocket 3.5 20:00:23 10° NNW 20:05:42 75° ENE 20:06:47 56° SE
CARTOSAT-1 3.4 20:06:16 70° S 20:06:46 87° W 20:11:07 10° NNW
IGS 5A 4.1 20:06:53 42° SW 20:07:49 51° W 20:11:53 10° NNW
STARLINK-1192 4.4 20:04:25 10° W 20:07:54 39° SW 20:07:54 39° SW
Cosmos 1356 Rocket 3.5 20:10:36 65° ENE 20:10:36 65° ENE 20:14:30 10° NNE
Resurs 01 Rocket 3.9 20:08:39 10° SW 20:11:54 20° W 20:15:11 10° NW
Okean 3 Rocket 3.4 20:07:58 10° N 20:12:25 85° ENE 20:12:40 79° SE
Mayak 0.6 20:09:27 10° NE 20:11:12 20° NE 20:11:12 20° NE
ERBS 4.0 20:10:18 10° WNW 20:12:22 27° WSW 20:12:22 27° WSW
ATLAS CENTAUR R/B 1.5 20:13:12 10° NW 20:16:45 59° N 20:16:45 59° N
BREEZE-M DEB (TANK) 4.4 20:14:58 10° W 20:15:10 11° W 20:15:10 11° W
Cosmos 1766 Rocket 3.4 20:13:13 10° N 20:17:44 81° ENE 20:17:48 80° E
SL-16 R/B 3.8 20:15:26 10° NNW 20:20:10 26° NE 20:22:23 21° ENE
Cosmos 1570 Rocket 4.1 20:15:33 10° NNW 20:20:55 73° WSW 20:21:55 57° S
Cosmos 2360 Rocket 4.4 20:19:28 10° NNW 20:23:14 18° NNE 20:26:45 11° ENE
Meteor 2-3 Rocket 3.7 20:22:14 10° N 20:27:59 64° ENE 20:28:43 58° ESE
ERS-1 Rocket 3.4 20:27:20 44° SW 20:28:30 54° W 20:33:27 10° NNW
Cosmos 2322 Rocket 3.8 20:23:57 10° NNW 20:28:38 25° NE 20:30:46 20° ENE
Cosmos 1455 2.8 20:30:11 55° NNW 20:30:11 55° NNW 20:33:20 10° N
Cosmos 1656 4.1 20:24:12 10° NW 20:29:43 53° WSW 20:30:57 45° SSW
Cosmos 1892 4.3 20:28:05 10° NNW 20:31:28 29° W 20:32:00 27° WSW
Cosmos 1980 Rocket 2.3 20:26:09 10° NNW 20:31:46 64° NE 20:32:34 57° E
SPOT 5 3.0 20:34:13 52° WSW 20:34:25 52° W 20:38:40 10° NNW
Cosmos 1825 3.2 20:38:01 10° NNW 20:41:03 44° WNW 20:41:03 44° WNW
Terra 2.0 20:42:27 61° WSW 20:42:41 62° WSW 20:47:27 10° NNW
Cosmos 2344 4.3 20:33:41 10° NW 20:42:44 80° NE 20:48:33 36° SE
ATLAS 5 CENTAUR R/B 3.1 20:42:12 10° W 20:46:21 37° NNW 20:51:06 10° NE
Cosmos 2151 4.1 20:46:00 10° NNW 20:49:51 37° W 20:49:51 37° W
Nadezhda 3 Rocket 4.0 20:50:21 52° SSW 20:52:02 80° W 20:58:21 10° N
Cosmos 2360 4.1 20:46:45 10° NNW 20:52:28 79° WSW 20:52:50 75° SSW
RESURS DK-1 3.8 20:50:15 10° NW 20:53:17 32° W 20:53:17 32° W
Cosmos 1535 Rocket 4.3 20:48:36 10° N 20:54:47 89° E 20:55:37 69° SSE
Cosmos 2278 3.6 20:53:05 10° NNW 20:58:46 75° WSW 20:58:59 74° SW
Cosmos 1408 Rocket 4.0 20:54:32 10° NNW 20:58:24 58° NW 20:58:24 58° NW
Thor Agena Rocket 4.0 20:55:02 10° NNE 20:59:03 48° ENE 20:59:03 48° ENE
Cosmos 1743 Rocket 4.1 20:55:36 10° N 20:59:12 54° NNE 20:59:12 54° NNE
Cosmos 2082 Rocket 2.8 21:03:59 43° ENE 21:03:59 43° ENE 21:08:08 10° NE
Cosmos 1833 Rocket 2.6 21:13:43 86° NNE 21:13:43 86° NNE 21:19:17 10° NNE
Spot 4 4.2 21:20:22 63° N 21:20:22 63° N 21:24:26 10° NNW
BREEZE M DEB (TANK) 4.2 21:14:54 10° WSW 21:20:09 76° S 21:41:10 10° E
Cosmos 2221 3.7 21:21:51 38° NNE 21:21:51 38° NNE 21:24:39 10° NNE
Meteor 1-27 4.2 21:21:10 84° ENE 21:21:10 84° ENE 21:26:55 10° NNE
Cosmos 2219 Rocket 4.5 21:18:00 10° NNW 21:21:47 18° NNE 21:25:34 10° ENE
USA 234 3.2 21:16:21 10° ENE 21:22:55 83° NNW 21:29:29 10° WSW
COSMOS 2406 3.8 21:20:59 35° WSW 21:23:09 54° NW 21:28:48 10° NNE
Cosmos 1934 Rocket 4.2 21:17:44 10° NNW 21:23:54 59° W 21:24:38 55° WSW
Cosmos 2100 Rocket 4.4 21:21:58 10° N 21:28:01 50° ENE 21:28:13 50° E
Cosmos 2173 Rocket 4.3 21:31:12 10° N 21:37:12 53° ENE 21:37:13 53° ENE
Cosmos 1605 Rocket 4.0 21:32:16 10° NNW 21:38:23 68° W 21:38:36 68° WSW
CZ-4C R/B 3.0 21:34:35 10° NW 21:41:31 57° SW 21:42:00 56° SW
Cosmos 1697 Rocket 4.1 21:41:27 10° NW 21:45:47 26° W 21:45:47 26° W
Sich 1 4.3 21:43:14 10° N 21:46:12 40° N 21:46:12 40° N
Mayak 0.3 21:44:50 10° N 21:47:46 33° NW 21:47:46 33° NW
Cosmos 1486 Rocket 4.5 21:54:20 57° NNE 21:54:20 57° NNE 21:58:31 10° NNE
ALOS 2 3.8 21:55:17 41° NNW 21:55:17 41° NNW 21:58:11 10° NNW
ATLAS CENTAUR R/B 4.2 21:52:54 10° WNW 21:52:55 10° WNW 21:52:55 10° WNW
SL-16 R/B 2.4 21:59:18 10° NNW 22:04:14 68° NW 22:04:14 68° NW
Cosmos 968 Rocket 4.1 22:06:28 52° NNE 22:06:28 52° NNE 22:10:27 10° NNE
Cosmos 2360 Rocket 2.7 22:03:02 10° NNW 22:08:30 53° NE 22:08:30 53° NE
Cosmos 2322 Rocket 2.4 22:07:44 10° NNW 22:12:34 65° NNW 22:12:34 65° NNW
Cosmos 1980 Rocket 3.7 22:10:43 10° NW 22:14:20 26° W 22:14:20 26° W
Cosmos 2333 Rocket 3.5 22:18:30 10° NNW 22:23:39 34° NE 22:25:05 30° ENE
Cosmos 2237 Rocket 4.5 22:25:17 10° NNW 22:29:27 20° NNE 22:33:38 10° E
Cosmos 2061 Rocket 3.9 22:25:57 10° N 22:32:00 83° N 22:32:00 83° N
ATLAS 5 CENTAUR R/B 4.2 22:28:24 10° NW 22:32:19 24° N 22:36:43 10° NE
Cosmos 1607 4.0 22:38:22 70° WNW 22:38:32 71° NW 22:44:49 10° NE
Cosmos 2082 Rocket 3.3 22:45:47 33° WNW 22:46:57 37° NW 22:52:12 10° NNE
Meteor 1-25 Rocket 4.4 22:41:30 10° N 22:46:45 71° NNE 22:46:45 71° NNE
SL-16 R/B 3.9 22:46:28 25° E 22:48:49 33° ENE 22:54:14 10° N
Cosmos 1459 Rocket 4.4 22:43:49 10° NNW 22:49:42 53° W 22:49:42 53° W
Cosmos 2233 Rocket 4.0 22:53:11 10° N 22:59:27 76° ENE 22:59:27 76° ENE
Cosmos 724 4.5 23:04:09 65° NE 23:04:09 65° NE 23:09:05 10° NE
Cosmos 923 Rocket 4.5 22:58:55 10° NNW 23:03:20 57° NNE 23:03:20 57° NNE
USA 234 3.7 22:59:18 10° ENE 23:05:42 59° N 23:12:07 10° W
Cosmos 1725 Rocket 4.1 23:00:38 10° NNW 23:06:34 67° WNW 23:06:34 67° WNW
Cosmos 2219 Rocket 2.6 23:01:31 10° NNW 23:07:02 55° NE 23:07:20 54° ENE
Cosmos 2016 Rocket 4.3 23:00:57 10° NNW 23:06:48 56° WNW 23:06:48 56° WNW
Meteor 1-26 Rocket 4.4 23:13:13 67° ENE 23:13:13 67° ENE 23:18:30 10° NNE
Helios 1B rocket 4.1 23:10:02 10° NNE 23:12:22 33° N 23:12:22 33° N
Meteor 1-14 Rocket 4.3 23:10:50 10° NNW 23:16:35 80° NNE 23:16:35 80° NNE
Cosmos 2123 Rocket 4.0 23:19:41 72° WNW 23:19:41 72° WNW 23:25:46 10° N
Cosmos 1680 Rocket 3.9 23:15:59 10° NNW 23:20:30 62° NNE 23:20:30 62° NNE
Meteor 2-20 Rocket 4.4 23:25:56 73° E 23:25:57 73° E 23:32:07 10° NNE
Cosmos 2322 3.9 23:20:48 10° NNW 23:25:36 63° NW 23:25:36 63° NW
Cosmos 1464 Rocket 4.4 23:21:28 10° N 23:27:27 52° ENE 23:28:26 48° ESE
COSMOS 2428 2.8 23:22:19 10° NNW 23:28:03 70° ENE 23:28:04 70° ENE
Cosmos 2333 4.5 23:25:27 10° NNW 23:30:02 60° NW 23:30:02 60° NW
Cosmos 1447 Rocket 4.4 23:35:30 80° SE 23:35:44 82° E 23:42:08 10° NNE
SJ 16-02 3.0 23:37:59 28° ENE 23:37:59 28° ENE 23:40:42 10° NE
Resurs 1-4 Rocket 3.3 23:33:03 10° NNE 23:37:47 32° E 23:37:53 32° E
NOSS 0 Rocket 4.3 23:32:37 10° NNW 23:38:44 59° NE 23:40:58 38° ESE
SL-16 R/B 4.3 23:44:42 10° WNW 23:46:05 14° WNW 23:46:05 14° WNW
Cosmos 2228 Rocket 4.0 23:50:00 47° NNW 23:50:00 47° NNW 23:53:26 10° N
SL-16 R/B 4.2 23:45:50 10° NNW 23:50:35 26° NE 23:55:18 10° E
Cosmos 2360 Rocket 3.6 23:47:23 10° NW 23:50:15 25° WNW 23:50:15 25° WNW
